GW5618 Weather Reports


Display with metric or nautical units.
time (UTC)temp
F
wind
direction
speed
MPH
gust
MPH
rain 1hr
in
rain 24hr
in
rain mn
in
humidity
%
barometer
mb
20260507060922 57 4 2.0 2.0 0.00 0.00 0.00 99 1005.4
20260507060418 57 194 3.0 5.0 0.00 0.00 0.00 99 1005.5
20260507055915 57 228 5.0 5.0 0.00 0.00 0.00 99 1005.8
20260507055410 57 187 2.0 5.0 0.00 0.00 0.00 99 1005.4
20260507054907 57 103 2.0 6.0 0.00 0.00 0.00 99 1005.3
20260507054403 57 289 0.0 5.0 0.00 0.00 0.00 99 1005.5
20260507053901 57 62 2.0 4.0 0.00 0.00 0.00 99 1005.9
20260507053358 57 176 3.0 4.0 0.00 0.00 0.00 99 1005.7
20260507052857 57 191 0.0 3.0 0.00 0.00 0.00 99 1005.6
20260507052354 57 102 0.0 3.0 0.00 0.00 0.00 99 1005.6
20260507051851 57 155 2.0 5.0 0.00 0.00 0.00 99 1005.5
20260507051349 57 77 0.0 5.0 0.00 0.00 0.00 99 1005.6
20260507050845 57 162 2.0 4.0 0.00 0.00 0.00 99 1005.6
20260507050342 57 314 2.0 6.0 0.00 0.00 0.00 99 1005.8
20260507045838 57 197 0.0 4.0 0.00 0.00 0.00 99 1005.9
20260507045335 57 232 0.0 4.0 0.00 0.00 0.00 99 1006.0
20260507044832 57 152 3.0 8.0 0.00 0.00 0.00 99 1005.9
20260507044329 57 238 2.0 6.0 0.00 0.00 0.00 99 1005.8
20260507043825 57 107 3.0 6.0 0.00 0.00 0.00 99 1005.7
20260507043321 57 6 0.0 8.0 0.00 0.00 0.00 99 1005.7
20260507042818 57 213 2.0 8.0 0.00 0.00 0.00 99 1005.7
20260507042314 57 197 0.0 6.0 0.00 0.00 0.00 99 1005.8
20260507041811 57 254 4.0 5.0 0.00 0.00 0.00 99 1005.9
20260507041307 57 162 2.0 7.0 0.00 0.00 0.00 99 1005.8
20260507040805 56 217 2.0 6.0 0.00 0.00 0.00 99 1005.9
20260507040300 56 170 4.0 9.0 0.00 0.00 0.00 99 1006.1
20260507035756 56 277 0.0 5.0 0.00 0.07 0.07 99 1006.0
20260507035252 56 123 0.0 7.0 0.00 0.07 0.07 99 1006.0
20260507034750 56 106 5.0 7.0 0.00 0.07 0.07 99 1006.2
20260507034246 56 273 5.0 11.0 0.00 0.07 0.07 99 1006.4
20260507033745 56 177 4.0 8.0 0.00 0.07 0.07 99 1006.2
20260507033242 56 245 7.0 8.0 0.00 0.07 0.07 99 1006.0
20260507032739 56 223 6.0 9.0 0.00 0.07 0.07 99 1006.0
20260507032235 56 239 7.0 8.0 0.00 0.07 0.07 99 1006.0
20260507031732 56 171 6.0 9.0 0.00 0.07 0.07 99 1005.9
20260507031229 56 200 6.0 22.0 0.00 0.07 0.07 99 1005.7
20260507030725 56 273 4.0 9.0 0.00 0.07 0.07 99 1005.7
20260507030223 56 321 2.0 14.0 0.00 0.07 0.07 99 1005.7
20260507025720 56 183 4.0 9.0 0.00 0.07 0.07 99 1005.7
20260507025217 56 214 4.0 6.0 0.00 0.07 0.07 99 1005.5
20260507024715 56 128 2.0 8.0 0.00 0.07 0.07 99 1005.5
20260507024212 56 286 2.0 7.0 0.00 0.07 0.07 99 1005.5
20260507023707 56 185 4.0 12.0 0.00 0.07 0.07 99 1005.6
20260507023205 56 125 7.0 14.0 0.00 0.07 0.07 99 1005.6
20260507022702 56 218 8.0 8.0 0.00 0.07 0.07 99 1005.6
20260507022157 56 191 10.0 13.0 0.00 0.07 0.07 99 1005.5
20260507021654 56 47 0.0 11.0 0.00 0.07 0.07 99 1005.4
20260507021149 56 234 5.0 12.0 0.00 0.07 0.07 99 1005.8
20260507020648 56 222 7.0 7.0 0.00 0.07 0.07 99 1005.9
20260507020144 56 134 2.0 9.0 0.00 0.07 0.07 99 1005.9
20260507015642 56 127 4.0 8.0 0.00 0.07 0.07 99 1006.1
20260507015139 56 196 3.0 7.0 0.00 0.07 0.07 99 1006.1
20260507014636 56 138 9.0 16.0 0.00 0.07 0.07 99 1006.1
20260507014132 56 153 5.0 15.0 0.00 0.07 0.07 99 1006.2
20260507013629 56 121 5.0 15.0 0.00 0.07 0.07 99 1006.2
20260507013126 56 168 6.0 13.0 0.00 0.07 0.07 99 1006.1
20260507012623 56 280 0.0 13.0 0.00 0.07 0.07 99 1006.2
20260507012118 56 147 6.0 15.0 0.00 0.07 0.07 99 1006.2
20260507011617 56 164 5.0 12.0 0.00 0.07 0.07 99 1006.3
20260507011113 56 125 4.0 15.0 0.00 0.07 0.07 99 1006.3
20260507010608 56 275 4.0 12.0 0.00 0.07 0.07 99 1006.3
20260507010104 56 168 2.0 11.0 0.00 0.07 0.07 99 1006.2
20260507005601 57 230 8.0 9.0 0.00 0.07 0.07 99 1006.4
20260507005057 57 114 12.0 15.0 0.00 0.07 0.07 99 1006.4
20260507004554 57 154 7.0 10.0 0.00 0.07 0.07 99 1006.2
20260507004052 57 124 7.0 9.0 0.00 0.07 0.07 99 1006.4
20260507003548 57 106 9.0 10.0 0.00 0.07 0.07 99 1006.4
20260507003043 57 151 7.0 7.0 0.00 0.07 0.07 99 1006.3
20260507002540 57 141 5.0 8.0 0.02 0.07 0.07 99 1006.4
20260507002036 57 199 14.0 14.0 0.05 0.07 0.07 99 1006.2
20260507001532 57 249 5.0 11.0 0.05 0.06 0.06 99 1006.2
20260507001030 57 157 6.0 11.0 0.07 0.06 0.06 99 1006.3
20260507000526 57 211 7.0 9.0 0.05 0.06 0.06 99 1006.1
20260507000022 57 231 9.0 15.0 0.00 0.05 0.05 99 1006.3
20260506235519 57 229 4.0 20.0 0.00 0.05 0.05 99 1006.2
20260506235015 57 202 8.0 9.0 0.00 0.05 0.05 99 1006.1
20260506234513 57 121 6.0 9.0 0.00 0.05 0.05 99 1006.3
20260506234010 57 135 4.0 8.0 0.00 0.05 0.05 99 1006.2
20260506233506 57 150 12.0 19.0 0.00 0.05 0.05 99 1006.3
20260506233003 57 128 7.0 9.0 0.00 0.05 0.05 99 1006.3
20260506232459 57 165 6.0 16.0 0.02 0.05 0.05 99 1006.4
20260506231955 57 81 9.0 18.0 0.02 0.05 0.05 99 1006.3
20260506231452 57 163 9.0 19.0 0.00 0.05 0.05 99 1006.4
20260506230950 57 140 4.0 12.0 0.00 0.05 0.05 99 1006.4
20260506230446 57 139 5.0 15.0 0.00 0.05 0.05 99 1006.3
20260506225942 57 197 2.0 5.0 0.02 0.05 0.05 99 1006.3
20260506225440 57 233 4.0 11.0 0.02 0.05 0.05 99 1006.3
20260506224937 57 114 4.0 14.0 0.02 0.04 0.04 99 1006.4
20260506224434 57 233 5.0 9.0 0.05 0.04 0.04 99 1006.2
20260506223930 57 94 8.0 11.0 0.05 0.04 0.04 99 1006.5
20260506223426 58 146 8.0 14.0 0.02 0.03 0.03 98 1006.9
20260506222923 58 177 2.0 12.0 0.02 0.03 0.03 98 1006.5
20260506222420 58 184 15.0 17.0 0.05 0.03 0.03 97 1006.8
20260506221917 58 213 10.0 15.0 0.02 0.02 0.02 97 1006.6
20260506221414 58 111 6.0 9.0 0.00 0.02 0.02 96 1006.8
20260506220912 59 164 9.0 18.0 0.00 0.02 0.02 96 1006.8
20260506220407 59 132 4.0 15.0 0.00 0.02 0.02 95 1006.8
20260506215904 59 171 15.0 17.0 0.00 0.02 0.02 96 1006.7
20260506215400 59 137 8.0 20.0 0.00 0.02 0.02 96 1007.0
20260506214856 59 171 4.0 15.0 0.00 0.02 0.02 96 1006.9
20260506214352 59 257 7.0 16.0 0.00 0.02 0.02 95 1006.7
20260506213851 59 202 14.0 17.0 0.00 0.02 0.02 95 1006.8
20260506213348 59 127 11.0 21.0 0.00 0.02 0.02 94 1007.1
20260506212845 60 161 6.0 17.0 0.00 0.02 0.02 94 1006.9
20260506212340 60 146 11.0 16.0 0.00 0.02 0.02 93 1006.8
20260506211836 60 176 7.0 16.0 0.00 0.02 0.02 93 1007.1
20260506211332 60 150 5.0 15.0 0.00 0.02 0.02 93 1007.1
20260506210829 60 150 7.0 15.0 0.00 0.02 0.02 93 1006.9
20260506210326 60 160 11.0 18.0 0.00 0.02 0.02 93 1007.0
20260506205823 60 168 3.0 15.0 0.00 0.02 0.02 94 1007.2
20260506205319 60 155 4.0 14.0 0.00 0.02 0.02 93 1007.3
20260506204816 59 281 5.0 12.0 0.00 0.02 0.02 93 1007.1
20260506204314 59 195 5.0 19.0 0.00 0.02 0.02 94 1007.2
20260506203811 59 190 9.0 17.0 0.00 0.02 0.02 95 1007.1
20260506203309 59 147 7.0 9.0 0.02 0.02 0.02 95 1007.4
20260506202805 59 211 6.0 24.0 0.00 0.02 0.02 95 1007.1
20260506202305 59 164 6.0 11.0 0.02 0.02 0.02 94 1007.3
20260506201758 60 128 7.0 15.0 0.02 0.02 0.02 94 1007.4
20260506201255 60 181 3.0 12.0 0.02 0.01 0.01 92 1007.2
20260506200753 60 145 9.0 15.0 0.05 0.01 0.01 91 1007.4
20260506200249 60 164 6.0 14.0 0.05 0.01 0.01 90 1007.5
20260506195745 61 194 6.0 26.0 0.02 0.00 0.00 88 1007.6
20260506195242 61 210 4.0 20.0 0.00 0.00 0.00 86 1007.7
20260506194739 62 125 16.0 22.0 0.00 0.00 0.00 85 1007.7
20260506194235 62 108 7.0 19.0 0.00 0.00 0.00 84 1007.7
20260506193734 63 198 9.0 27.0 0.00 0.00 0.00 81 1007.6
20260506193230 63 150 6.0 9.0 0.00 0.00 0.00 81 1007.6
20260506192726 63 147 8.0 21.0 0.00 0.00 0.00 80 1007.6
20260506192223 63 132 9.0 18.0 0.00 0.00 0.00 80 1007.7
20260506191720 64 212 9.0 13.0 0.00 0.00 0.00 80 1007.7
20260506191216 64 160 4.0 28.0 0.00 0.00 0.00 80 1007.8
20260506190714 64 100 5.0 16.0 0.00 0.00 0.00 80 1007.6
20260506190210 64 201 13.0 29.0 0.00 0.00 0.00 80 1007.7
20260506185707 64 124 4.0 27.0 0.00 0.00 0.00 79 1007.4
20260506185203 64 178 5.0 21.0 0.00 0.00 0.00 79 1008.1
20260506184701 64 189 6.0 26.0 0.00 0.00 0.00 78 1007.6
20260506184158 65 151 5.0 26.0 0.00 0.00 0.00 77 1007.9
20260506183655 65 175 5.0 19.0 0.00 0.00 0.00 77 1007.8
20260506183151 65 87 4.0 26.0 0.00 0.00 0.00 76 1007.8
20260506182649 65 217 11.0 19.0 0.00 0.00 0.00 76 1008.0
20260506182145 65 150 12.0 14.0 0.00 0.00 0.00 76 1007.9
20260506181643 65 140 3.0 17.0 0.00 0.00 0.00 76 1008.0
20260506181140 65 131 6.0 19.0 0.00 0.00 0.00 76 1008.1
20260506180637 66 127 18.0 27.0 0.00 0.00 0.00 75 1008.4
20260506180133 66 140 10.0 25.0 0.00 0.00 0.00 74 1008.3
20260506175630 66 147 12.0 17.0 0.00 0.00 0.00 74 1008.6
20260506175126 67 318 17.0 25.0 0.00 0.00 0.00 73 1008.5
20260506174625 67 199 6.0 22.0 0.00 0.00 0.00 74 1008.8
20260506174121 66 189 23.0 31.0 0.00 0.00 0.00 74 1008.6
20260506173619 67 192 13.0 28.0 0.00 0.00 0.00 73 1008.5
20260506173115 67 70 15.0 23.0 0.00 0.00 0.00 74 1008.7
20260506172613 68 147 9.0 28.0 0.00 0.00 0.00 71 1008.6
20260506172109 69 164 11.0 23.0 0.00 0.00 0.00 71 1008.3
20260506171607 67 203 6.0 22.0 0.00 0.00 0.00 73 1008.4
20260506171104 67 242 5.0 11.0 0.00 0.00 0.00 74 1008.5
20260506170601 67 198 11.0 25.0 0.00 0.00 0.00 73 1008.4
20260506170059 67 221 27.0 28.0 0.00 0.00 0.00 72 1008.9
20260506165557 67 212 13.0 25.0 0.00 0.00 0.00 72 1008.7
20260506165053 67 188 8.0 25.0 0.00 0.00 0.00 72 1008.8
20260506164550 67 172 19.0 25.0 0.00 0.00 0.00 72 1009.0
20260506164047 68 119 14.0 25.0 0.00 0.00 0.00 71 1009.0
20260506163543 67 218 9.0 18.0 0.00 0.00 0.00 71 1009.2
20260506163039 67 235 13.0 18.0 0.00 0.00 0.00 72 1009.1
20260506162536 67 202 12.0 21.0 0.00 0.00 0.00 71 1009.1
20260506162033 68 192 10.0 16.0 0.00 0.00 0.00 71 1009.2
20260506161531 68 133 9.0 24.0 0.00 0.00 0.00 71 1009.3
20260506161027 68 216 7.0 25.0 0.00 0.00 0.00 70 1009.1
20260506160525 68 198 7.0 16.0 0.00 0.00 0.00 72 1009.5
20260506160022 68 236 14.0 29.0 0.00 0.00 0.00 72 1009.3
20260506155520 68 186 6.0 11.0 0.00 0.00 0.00 72 1009.5
20260506153651 68 149 8.0 11.0 0.00 0.00 0.00 72 1009.8
20260506153149 67 213 19.0 32.0 0.00 0.00 0.00 72 1010.1
20260506152645 67 116 7.0 19.0 0.00 0.00 0.00 72 1010.1
20260506152143 67 155 13.0 16.0 0.00 0.00 0.00 73 1010.0
20260506151642 67 157 9.0 18.0 0.00 0.00 0.00 72 1009.9
20260506151138 68 158 9.0 19.0 0.00 0.00 0.00 69 1010.0
20260506150635 69 211 8.0 16.0 0.00 0.00 0.00 69 1009.9
20260506150132 69 164 7.0 19.0 0.00 0.00 0.00 69 1009.9
20260506145629 69 131 6.0 17.0 0.00 0.00 0.00 70 1010.0
20260506145125 68 311 0.0 17.0 0.00 0.00 0.00 70 1009.8
20260506144623 68 135 9.0 11.0 0.00 0.00 0.00 71 1009.6
20260506144119 68 206 6.0 17.0 0.00 0.00 0.00 70 1009.7
20260506143617 69 248 6.0 16.0 0.00 0.00 0.00 69 1009.8
20260506143115 69 133 11.0 19.0 0.00 0.00 0.00 70 1009.7
20260506142613 68 166 13.0 17.0 0.00 0.00 0.00 72 1009.5
20260506142111 67 234 12.0 25.0 0.00 0.00 0.00 71 1009.8
20260506141608 67 165 5.0 24.0 0.00 0.00 0.00 71 1009.9
20260506141107 67 141 8.0 17.0 0.00 0.00 0.00 73 1009.5
20260506140603 67 116 9.0 21.0 0.00 0.00 0.00 73 1009.5
20260506140101 67 166 15.0 24.0 0.00 0.00 0.00 73 1009.8
20260506135558 68 157 11.0 26.0 0.00 0.00 0.00 72 1010.2
20260506135054 67 147 5.0 9.0 0.00 0.00 0.00 74 1010.1
20260506134551 66 264 7.0 24.0 0.00 0.00 0.00 75 1010.4
20260506134046 66 131 12.0 21.0 0.00 0.00 0.00 75 1010.3
20260506133544 66 215 7.0 13.0 0.00 0.00 0.00 75 1010.3
20260506133041 66 131 9.0 26.0 0.00 0.00 0.00 76 1010.4
20260506132538 65 126 7.0 20.0 0.00 0.00 0.00 78 1010.2
20260506132035 64 173 5.0 20.0 0.00 0.00 0.00 78 1010.6
20260506131532 64 185 2.0 21.0 0.00 0.00 0.00 80 1010.3
20260506131028 64 291 5.0 17.0 0.00 0.00 0.00 80 1010.5
20260506130525 63 102 4.0 15.0 0.00 0.00 0.00 81 1010.5
20260506130023 63 186 4.0 11.0 0.00 0.00 0.00 82 1010.1
20260506125521 63 156 11.0 23.0 0.00 0.00 0.00 82 1010.6
20260506125019 63 103 9.0 12.0 0.00 0.00 0.00 83 1010.2
20260506124516 62 149 5.0 14.0 0.00 0.00 0.00 84 1010.4
20260506124014 62 164 7.0 16.0 0.00 0.00 0.00 85 1010.2
20260506123512 61 164 6.0 14.0 0.00 0.00 0.00 85 1010.3
20260506123009 61 156 4.0 20.0 0.00 0.00 0.00 85 1010.1
20260506122506 61 166 6.0 15.0 0.00 0.00 0.00 86 1010.5
20260506122004 61 184 4.0 13.0 0.00 0.00 0.00 87 1010.6
20260506121501 60 219 6.0 14.0 0.00 0.00 0.00 87 1010.8
20260506120957 60 142 7.0 19.0 0.00 0.00 0.00 87 1010.8
20260506120455 60 195 10.0 21.0 0.00 0.00 0.00 87 1010.7
20260506115952 60 156 9.0 21.0 0.00 0.00 0.00 87 1010.5
20260506115450 60 198 11.0 21.0 0.00 0.00 0.00 87 1010.9
20260506114948 60 240 13.0 19.0 0.00 0.00 0.00 88 1010.8
20260506114445 60 172 6.0 15.0 0.00 0.00 0.00 89 1010.9
20260506113944 59 171 6.0 14.0 0.00 0.00 0.00 90 1010.9
20260506113442 59 206 14.0 21.0 0.00 0.00 0.00 90 1010.8
20260506112938 59 188 10.0 16.0 0.00 0.00 0.00 90 1010.8
20260506112436 59 155 8.0 8.0 0.00 0.00 0.00 91 1011.0
20260506111932 59 161 2.0 12.0 0.00 0.00 0.00 91 1010.8
20260506111431 59 200 0.0 18.0 0.00 0.00 0.00 91 1010.9
20260506110927 59 145 9.0 14.0 0.00 0.00 0.00 91 1010.8
20260506110425 59 128 2.0 15.0 0.00 0.00 0.00 91 1010.8
20260506105921 59 225 9.0 14.0 0.00 0.00 0.00 91 1010.9
20260506105418 59 169 2.0 13.0 0.00 0.00 0.00 91 1011.0
20260506104915 59 163 8.0 12.0 0.00 0.00 0.00 91 1010.9
20260506104413 59 131 10.0 22.0 0.00 0.00 0.00 91 1011.0
20260506103911 58 201 11.0 17.0 0.00 0.00 0.00 92 1010.9
20260506103408 58 174 8.0 15.0 0.00 0.00 0.00 92 1011.0
20260506102905 58 128 11.0 16.0 0.00 0.00 0.00 92 1010.8
20260506102403 58 120 9.0 19.0 0.00 0.00 0.00 92 1010.9
20260506101900 58 135 5.0 12.0 0.00 0.00 0.00 92 1010.7
20260506101356 58 193 6.0 14.0 0.00 0.00 0.00 92 1010.6
20260506100854 58 125 9.0 9.0 0.00 0.00 0.00 92 1010.6
20260506100352 58 124 4.0 17.0 0.00 0.00 0.00 92 1010.7
20260506095850 58 169 6.0 9.0 0.00 0.00 0.00 92 1010.6
20260506095347 58 295 7.0 13.0 0.00 0.00 0.00 92 1010.6
20260506094844 58 229 9.0 23.0 0.00 0.00 0.00 92 1010.6
20260506094343 58 219 11.0 15.0 0.00 0.00 0.00 92 1010.8
20260506093840 58 173 9.0 11.0 0.00 0.00 0.00 91 1010.7
20260506093337 58 135 6.0 14.0 0.00 0.00 0.00 92 1010.6
20260506092835 58 168 4.0 13.0 0.00 0.00 0.00 91 1010.6
20260506092333 58 138 6.0 10.0 0.00 0.00 0.00 91 1010.6
20260506091829 58 117 6.0 14.0 0.00 0.00 0.00 91 1010.6
20260506091327 58 129 7.0 14.0 0.00 0.00 0.00 91 1010.5
20260506090825 58 43 5.0 15.0 0.00 0.00 0.00 91 1010.5
20260506090322 58 195 4.0 9.0 0.00 0.00 0.00 91 1010.7
20260506085818 58 107 5.0 11.0 0.00 0.00 0.00 90 1010.6
20260506085315 58 139 6.0 15.0 0.00 0.00 0.00 90 1010.9
20260506084812 58 154 4.0 9.0 0.00 0.00 0.00 90 1010.7
20260506084308 58 156 7.0 12.0 0.00 0.00 0.00 90 1010.7
20260506083805 59 82 0.0 11.0 0.00 0.00 0.00 90 1010.8
20260506083302 59 122 8.0 9.0 0.00 0.00 0.00 90 1010.8
20260506082800 59 166 8.0 13.0 0.00 0.00 0.00 90 1010.9
20260506082255 59 133 7.0 13.0 0.00 0.00 0.00 89 1010.7
20260506081753 59 167 6.0 12.0 0.00 0.00 0.00 89 1010.6
20260506081250 59 75 6.0 19.0 0.00 0.00 0.00 89 1010.7
20260506080748 59 108 4.0 19.0 0.00 0.00 0.00 88 1010.7
20260506080244 59 182 12.0 18.0 0.00 0.00 0.00 88 1010.8
20260506073228 59 215 7.0 11.0 0.00 0.00 0.00 88 1010.7
20260506072725 59 133 12.0 15.0 0.00 0.00 0.00 88 1010.6
20260506072223 59 178 6.0 19.0 0.00 0.00 0.00 88 1010.5
20260506071720 59 112 3.0 16.0 0.00 0.00 0.00 88 1010.5
20260506071218 59 163 7.0 16.0 0.00 0.00 0.00 87 1010.8
20260506070715 59 172 3.0 17.0 0.00 0.00 0.00 87 1010.8
20260506070212 59 138 9.0 14.0 0.00 0.00 0.00 87 1010.7
20260506062148 59 165 4.0 15.0 0.00 0.00 0.00 85 1010.5
20260506061644 59 157 12.0 15.0 0.00 0.00 0.00 85 1010.2